Tracking 31027 objects as of 19-Jul-2025
HD Live streaming from Space Station
objects crossing your sky now

ONEWEB-0069

Track ONEWEB-0069 now!
10-day predictions
ONEWEB-0069 is classified as:


NORAD ID: 45430
Int'l Code: 2020-020G
Perigee: 1,223.5 km
Apogee: 1,226.2 km
Inclination: 87.9 °
Period: 109.8 minutes
Semi major axis: 7595 km
RCS: Unknown
Launch date: March 21, 2020
Source: United Kingdom (UK)
Launch site: TYURATAM MISSILE AND SPACE COMPLEX (TTMTR)
Your satellite tracking list
STARLINK-6351
Track 1 satellite(s)




NASA's NSSDC Master Catalog

Two Line Element Set (TLE):
1 45430U 20020G   25199.18808982 -.00000397  00000-0 -11559-2 0  9994
2 45430  87.8831  87.6296 0001793  81.5692 278.5639 13.11418060258899
Source of the keplerian elements: AFSPC